SCP
0 0 -0 0 0 0 0 0 0 0 0 0 0 0 0 0 0 0 0 0 0 0 0 0 0 0 0 0 0 0 0 0 0 0 0 0 0 0 0 0 0 0 0 0 0 0 0 0 0 0 0 0 0 0
0 0 0 0 0 0 0 0 0 0 0 0 0 0 0 0 0 0 -0 -0 0 -0 0 0 0 0 0 0 0 0 0 0 0 0 0 0 0 0 0 0 0 0 0 0 0 0 0 0 0 0 0 0 0 0
0 0 0 0 0 0 0 0 0 0 0 0 0 0 0 0 0 -0 -0 0 0 0 0 0 0 0 0 0 0 0 0 0 0 0 0 0 0 0 0 0 0 0 0 0 0 0 0 0 0 0 0 0 0 0
0 0 0 0 0 0 0 0 0 0 0 0 -0 -0 0 0 0 0 0 0 0 0 0 0 0 0 0 0 0 0 0 0 0 0 0 0 0 0 0 0 0 0 0 0 0 0 0 0 0 0 0 0 0 0
0 0 0 0 0 0 0 0 0 0 -0 -0 0 0 0 0 0 0 0 0 0 0 0 0 0 0 0 0 0 0 0 0 0 0 -0 -0 0 0 0 0 0 0 0 0 0 0 0 0 0 0 0 0 0 0
0 0 0 0 0 0 0 0 0 0 0 -0 0 0 0 0 0 0 0 0 0 0 0 0 0 0 0 0 -0 -0 0 0 0 0 0 -0 -0 0 0 0 -0 0 -0 -0 0 0 0 0 0 0 0 0 0 0
0 0 0 0 0 0 0 0 0 0 0 0 0 0 0 0 0 0 0 0 0 0 0 0 0 0 0 0 0 0 0 0 0 0 -0 0 0 -0 0 0 -0 -0 -0 -0 0 0 0 0 0 0 0 0 0 0
0 0 0 0 0 0 0 0 0 0 0 0 0 0 0 0 0 0 0 0 0 0 0 0 0 0 0 0 0 0 0 0 0 0 0 0 0 -0 -0 -0 -0 -0 -0 -0 -0 0 0 0 0 0 0 0 0 0
0 0 0 0 0 0 0 0 0 0 0 0 0 0 0 0 0 0 0 0 0 0 0 0 0 0 0 0 0 0 0 0 0 0 0 0 -0 -0 -0 -0 -0 0 -0 -0 -0 0 0 0 0 0 0 0 0 0
0 -0 0 0 0 0 0 0 0 0 0 0 0 0 0 0 0 0 0 0 0 0 0 0 0 0 0 0 0 0 0 0 0 0 0 0 0 0 0 0 0 -0 -0 0 0 -0 0 0 0 0 0 0 0 0
-0 -0 -0 -0 -0 0 0 0 0 0 0 0 0 0 0 0 0 0 0 0 0 0 0 0 0 0 0 0 0 0 0 0 0 0 0 0 -0 0 0 -0 -0 -0 -0 -0 0 0 -0 -0 0 0 0 0 0 0
-0 -0 -0 -0 -0 0 0 0 0 0 0 0 0 0 0 0 0 0 0 0 0 0 0 0 0 0 0 0 0 0 0 0 0 0 0 0 0 0 -0 -0 -0 -0 -0 -0 -0 0 0 0 -0 -0 -0 0 0 0
-0 -0 -0 -0 -0 0 0 0 0 0 0 0 0 0 0 0 0 0 0 0 0 0 0 0 0 0 0 0 0 0 0 0 0 0 0 0 0 0 -0 -0 -0 -0 -0 0 -0 -0 -0 -0 0 0 -0 0 0 0
-0 -0 -0 -0 0 0 0 0 0 0 0 0 0 0 0 0 0 0 0 0 0 0 0 0 0 0 0 0 0 0 0 0 0 0 0 0 0 -0 -0 -0 -0 -0 -0 -0 -0 -0 -0 -0 -0 -0 -0 -0 -0 0
-0 -0 -0 0 0 -0 0 0 0 0 0 0 0 0 0 0 0 0 0 0 0 0 0 0 0 0 0 0 0 0 0 0 0 0 0 0 0 0 -0 -0 -0 -0 -0 -0 -0 -0 -0 -0 -0 -0 -0 -0 -0 -0
-0 -0 0 0 -0 -0 0 0 0 0 0 0 0 0 0 0 0 0 0 0 0 0 0 0 0 0 0 0 0 0 0 0 0 0 0 0 0 0 -0 -0 -0 -0 -0 -0 -0 -0 -0 -0 -0 -0 -0 -0 -0 0
-0 0 0 0 0 0 0 0 0 0 0 0 0 0 0 0 0 0 0 0 0 0 0 0 0 0 0 0 0 0 0 0 0 0 0 0 0 0 -0 -0 -0 -0 -0 -0 -0 -0 -0 -0 -0 -0 -0 -0 0 0
0 0 0 -0 0 0 0 0 0 0 0 0 0 0 0 0 0 0 0 0 0 0 0 0 0 0 0 0 0 0 0 0 0 0 0 0 0 0 0 0 0 0 0 -0 -0 -0 -0 -0 -0 -0 -0 -0 -0 -0
-0 -0 -0 0 0 0 0 0 0 0 0 0 0 0 0 0 0 0 0 0 0 0 0 0 0 0 0 0 0 0 0 0 0 0 0 0 0 0 0 0 0 0 0 0 -0 -0 -0 -0 -0 -0 -0 -0 -0 -0
-0 0 0 0 0 0 0 0 0 0 0 0 0 0 0 0 0 0 0 0 0 0 0 0 0 0 0 0 0 0 0 0 0 0 0 0 0 0 0 0 0 0 0 0 0 -0 -0 -0 -0 -0 -0 -0 -0 -0
0 0 0 0 0 0 0 0 0 0 0 0 0 0 0 0 0 0 0 0 0 0 0 0 0 0 0 0 0 0 0 0 0 0 0 0 0 0 0 0 0 0 0 0 0 0 0 -0 -0 -0 -0 -0 -0 -0
0 0 0 0 0 0 0 0 0 0 0 0 0 0 0 0 0 0 0 0 0 0 0 0 0 0 0 0 0 0 0 0 0 0 0 0 0 0 0 0 0 0 0 0 0 0 -0 -0 -0 -0 -0 -0 -0 0
0 0 -0 0 0 0 0 0 0 0 0 0 0 0 0 0 0 0 0 0 0 0 0 0 0 0 0 0 0 0 0 0 0 0 0 0 0 0 0 0 0 0 0 0 0 0 0 0 0 0 -0 0 0 0
-0 -0 0 0 0 0 0 0 0 0 0 0 0 0 0 0 0 0 0 0 0 0 0 0 0 0 0 0 0 0 0 0 0 0 0 0 0 0 0 0 0 0 0 0 0 0 0 0 0 0 0 0 0 0
-0 -0 -0 0 0 0 0 0 0 0 0 0 0 0 0 0 -0 0 0 0 0 0 0 0 0 0 0 0 0 0 0 0 0 0 0 0 0 0 0 0 0 0 0 0 0 0 0 0 0 0 0 0 0 0
-0 -0 -0 0 0 0 0 0 0 0 0 0 0 0 0 0 0 0 0 0 0 0 0 0 0 0 0 0 0 0 0 0 0 0 0 0 0 0 0 0 0 0 0 0 0 -0 0 0 0 0 -0 -0 0 -0
0 -0 0 0 0 0 0 0 0 0 0 0 0 0 0 0 0 0 0 0 0 0 0 0 0 0 0 0 0 0 0 0 0 0 0 0 0 0 0 0 0 0 0 0 -0 -0 -0 -0 0 0 0 0 0 -0
-0 -0 0 0 0 0 0 0 0 0 0 0 0 0 0 0 0 0 0 0 0 0 0 0 0 0 0 0 0 0 0 0 0 0 0 0 0 0 0 0 0 0 0 0 -0 -0 -0 -0 0 -0 -0 -0 -0 -0
-0 -0 0 0 0 0 0 0 0 0 0 0 0 0 0 0 0 0 0 0 0 0 0 0 0 0 0 0 0 0 0 0 0 0 0 0 0 0 0 0 0 0 0 0 0 0 0 0 -0 -0 -0 0 0 0
0 -0 0 0 0 0 0 0 0 0 0 0 0 0 0 0 0 0 0 0 0 0 0 0 0 0 0 0 0 0 0 0 0 0 0 0 0 0 0 0 0 0 0 0 0 0 0 0 0 0 0 0 0 0
-0 -0 0 0 0 0 0 0 0 0 0 0 0 0 0 0 0 0 0 0 0 0 0 0 0 0 0 0 0 0 0 0 0 0 0 0 0 0 0 0 0 0 0 0 0 0 0 0 0 0 0 0 0 0
0 -0 0 0 0 0 0 0 0 0 0 0 0 0 0 0 0 0 0 0 0 0 0 0 0 0 0 0 0 0 0 0 0 0 0 0 0 0 0 0 0 0 0 0 0 0 0 0 0 0 0 0 0 0
0 0 0 0 0 0 0 0 0 0 0 0 0 0 0 0 0 0 0 0 0 0 0 0 0 0 0 0 0 0 0 0 0 0 0 0 0 0 0 0 0 0 0 0 0 0 0 0 0 0 0 0 0 0
Wind_Speed_500mb
39 48 52 53 52 46 43 48 52 56 49 34 23 13 6 6 11 9 9 3 6 6 20 16 23 16 11 6 4 13 13 9 8 9 5 5 5 7 5 8 10 7 8 8 8 10 11 40 20 15 16 30 23 31
41 49 52 53 51 42 42 48 52 52 35 30 24 14 7 9 13 10 10 8 6 13 11 21 23 14 24 14 12 5 8 7 8 5 4 7 6 7 19 8 11 5 5 2 6 3 16 28 32 25 18 22 27 36
44 51 53 53 48 39 42 47 50 43 29 27 23 13 13 14 15 8 6 7 6 6 15 13 19 27 21 15 5 3 4 7 9 13 7 4 6 7 8 7 8 6 13 4 5 5 23 35 11 47 34 26 32 34
45 50 53 52 44 37 42 46 44 31 25 22 25 16 19 15 9 5 2 8 4 5 4 6 20 23 22 15 8 6 15 17 18 11 6 5 5 15 7 8 6 8 20 14 7 12 41 14 48 47 50 39 28 30
45 50 51 49 40 37 42 44 37 20 18 17 19 19 14 11 10 7 7 4 3 2 4 12 11 18 21 16 9 5 6 3 8 8 7 7 9 9 9 7 6 25 7 7 5 31 26 33 51 52 42 43 36 36
44 48 47 43 36 35 41 40 28 18 13 17 11 10 8 6 6 7 5 4 10 8 5 4 4 6 7 10 9 6 8 12 10 7 6 6 8 16 6 6 25 30 60 42 13 44 25 38 37 35 35 47 41 39
44 47 43 37 32 31 38 35 21 17 12 14 14 11 11 10 10 6 5 14 9 8 5 8 8 6 8 8 6 1 6 9 8 6 9 7 7 10 4 7 39 50 41 60 49 38 30 43 40 43 35 32 36 42
44 43 38 34 29 27 32 31 22 14 14 11 10 10 13 17 15 7 12 14 9 6 5 2 8 5 9 7 4 4 5 4 8 5 8 8 11 7 4 36 46 40 29 55 55 38 38 39 49 51 38 35 30 33
41 38 35 33 28 24 26 27 21 18 16 15 14 17 16 7 9 15 20 15 12 7 4 4 4 5 5 6 4 4 4 4 4 4 1 3 6 5 13 36 41 39 32 47 53 41 40 47 48 57 55 40 32 24
39 36 34 33 29 22 22 23 22 19 18 16 14 7 6 9 23 21 4 4 4 5 7 8 7 6 5 3 3 6 2 5 4 0 3 5 5 17 32 42 36 32 28 50 53 55 54 54 59 59 57 50 43 35
35 35 34 32 29 21 19 21 24 21 18 10 7 5 16 22 9 4 4 2 2 6 10 11 16 6 7 1 2 2 3 1 2 3 3 2 5 10 36 39 34 22 16 29 45 40 44 47 47 52 57 61 57 44
33 33 33 31 22 18 21 23 23 20 15 13 14 18 9 5 3 2 5 3 5 7 7 7 6 8 3 6 4 9 3 4 2 3 6 5 7 24 31 36 35 20 12 18 27 38 48 55 55 49 53 60 62 54
34 33 31 27 16 21 25 24 20 18 20 16 4 4 4 1 8 4 7 9 6 9 9 7 7 7 7 9 2 2 2 4 11 5 2 7 15 23 29 29 33 22 19 16 13 21 31 48 56 60 47 47 57 65
35 35 30 22 14 19 26 21 16 12 10 5 5 8 6 5 8 7 10 9 18 17 36 32 6 9 6 4 3 5 1 6 5 5 5 6 16 24 28 29 30 22 21 22 16 16 22 29 39 49 54 57 45 52
35 35 26 14 15 21 28 21 10 11 7 6 6 6 10 12 13 16 18 20 26 27 24 3 2 4 4 5 5 5 6 5 5 7 6 17 18 23 31 32 32 18 18 21 20 21 22 25 25 31 36 37 46 53
38 26 15 14 24 32 25 18 13 13 7 8 10 5 11 5 16 12 13 22 21 28 4 3 5 6 7 2 6 4 3 5 6 6 20 20 23 24 30 30 27 10 16 19 24 23 23 27 28 28 28 33 37 39
40 25 33 29 22 20 17 13 8 8 7 6 11 20 26 23 19 21 14 16 23 12 2 5 6 2 0 4 3 4 7 5 13 18 19 15 19 23 23 24 15 6 13 16 24 27 17 25 28 28 34 29 33 35
47 34 25 19 18 16 15 12 7 7 10 18 12 30 26 18 15 20 19 10 12 5 2 4 8 8 1 3 4 6 8 8 7 8 14 15 20 29 21 20 5 8 11 16 21 21 16 16 23 27 30 30 32 26
33 18 18 14 12 10 5 7 11 9 16 18 20 26 7 7 20 22 14 11 17 15 9 6 8 5 5 10 7 7 11 7 6 10 19 18 18 25 24 11 2 2 4 13 15 19 23 18 15 18 23 23 25 21
27 22 14 17 19 6 6 6 10 10 10 11 12 11 5 6 8 3 3 12 2 12 7 1 9 5 5 9 5 9 7 4 4 19 27 14 17 27 27 8 2 1 3 15 12 15 22 21 10 12 18 24 28 13
21 20 22 15 9 9 8 6 9 9 11 7 9 6 9 11 10 17 10 4 6 16 7 13 23 6 4 5 12 7 6 7 12 19 14 11 19 15 7 8 10 10 13 13 11 13 17 21 8 15 19 26 27 16
25 20 15 7 4 5 9 10 9 12 7 7 5 7 8 8 8 10 7 5 4 2 5 13 10 12 12 15 5 7 11 9 17 17 6 14 10 4 7 7 9 14 12 9 12 11 20 10 9 13 17 21 25 24
15 11 6 5 5 6 5 6 6 6 7 11 7 5 7 6 10 10 7 5 3 6 6 4 6 12 18 11 5 13 12 14 17 14 13 10 6 2 6 10 12 9 8 11 13 7 9 13 1 5 14 18 19 20
13 4 4 4 5 8 8 3 5 7 6 9 7 5 7 9 12 6 2 5 5 6 1 4 14 17 13 9 13 13 15 13 13 13 12 11 9 9 22 29 14 17 23 17 11 10 11 4 12 4 12 12 14 11
5 5 4 6 5 5 5 6 7 7 6 8 6 3 7 8 3 5 1 4 11 5 1 7 6 9 11 12 14 14 18 19 17 16 15 11 7 5 25 20 10 29 14 14 8 13 15 5 7 11 11 15 16 18
1 6 8 5 2 2 1 2 4 4 2 1 3 5 6 6 6 5 4 8 7 2 8 9 11 16 18 16 14 16 19 20 16 18 5 8 7 28 14 12 14 12 9 4 9 13 12 13 12 7 5 14 15 14
3 7 7 7 4 2 1 1 1 5 3 5 2 1 4 5 4 5 8 6 5 8 11 14 18 20 17 12 16 20 20 8 2 5 7 3 2 12 19 18 21 18 17 10 9 11 9 8 7 5 2 6 10 11
10 6 8 6 7 6 6 5 6 8 8 7 7 4 4 4 5 7 9 9 11 14 17 18 12 7 7 6 4 6 8 5 1 7 8 10 8 7 11 19 16 14 10 15 12 9 5 4 4 5 11 8 8 9
9 9 11 7 6 6 10 13 9 9 12 13 12 5 4 2 6 7 9 13 13 14 13 4 5 5 6 6 5 4 4 10 10 12 11 13 9 6 9 13 15 15 5 8 10 5 9 6 5 18 15 6 6 5
8 17 8 8 7 8 7 13 10 14 15 13 11 9 7 3 1 4 7 4 3 2 3 7 10 6 8 7 11 19 20 14 15 12 14 12 8 6 12 10 12 15 12 10 11 8 11 11 13 9 4 5 7 7
6 14 9 13 9 6 15 19 20 16 19 14 13 15 12 6 7 6 6 8 7 6 2 9 10 8 9 16 23 22 13 15 18 12 8 6 5 8 10 8 8 13 14 10 12 14 10 8 8 9 9 9 10 12
13 15 9 9 5 15 24 17 15 12 14 15 13 16 17 12 9 12 21 17 7 6 8 7 7 10 14 20 18 13 13 14 11 7 3 2 5 6 7 9 9 9 10 13 15 13 11 10 8 10 11 13 14 13
9 10 11 11 14 16 17 15 11 7 10 10 13 17 20 14 10 18 28 25 9 4 10 13 11 10 12 16 18 19 19 20 18 15 14 14 14 14 12 10 8 6 6 6 7 7 7 7 9 13 15 16 15 17
Wind_Direction_500mb
344 347 346 348 350 349 348 351 350 349 350 359 10 26 63 104 121 132 127 159 224 296 301 306 315 302 288 247 289 314 339 8 329 352 325 316 302 323 309 44 125 127 182 187 213 231 240 15 337 357 323 321 334 338
342 345 345 347 349 348 349 350 351 351 357 4 10 26 63 114 134 147 182 188 209 256 287 332 350 347 360 330 245 329 313 307 333 336 339 302 322 339 341 35 29 55 302 304 244 328 336 317 320 275 326 325 320 314
339 344 344 348 348 348 350 350 351 355 3 13 30 47 81 103 140 155 190 215 256 296 300 0 5 12 17 11 234 245 307 308 333 337 296 325 337 333 353 32 316 317 345 274 287 51 319 333 293 330 331 326 313 303
338 342 343 348 348 349 349 350 353 359 12 33 42 65 87 94 96 84 54 195 233 315 322 349 359 12 18 39 28 333 277 316 312 326 10 16 338 1 335 306 334 335 308 324 300 342 348 100 292 315 329 335 315 299
339 341 343 346 348 350 350 351 355 5 23 39 51 62 79 68 54 50 47 68 357 298 304 311 342 13 25 31 42 25 333 7 42 23 25 16 9 331 312 294 354 352 321 5 314 303 289 285 319 338 340 326 328 312
338 339 342 344 348 350 351 354 2 11 30 38 42 33 52 54 345 309 329 287 336 304 295 303 294 303 339 21 26 58 66 51 62 61 14 353 339 346 353 336 350 354 5 350 338 340 344 352 353 345 331 319 313 310
338 338 339 344 347 349 355 0 10 20 28 35 35 12 354 351 351 9 338 322 325 310 282 301 284 232 262 295 235 120 54 62 58 56 13 335 346 14 312 348 349 350 5 3 4 0 354 357 346 353 340 322 303 294
337 338 339 342 345 344 354 4 7 7 3 7 357 336 327 332 325 326 324 324 311 304 289 312 276 282 198 239 220 188 148 86 51 74 358 351 330 351 352 335 351 359 7 5 0 17 5 0 12 11 13 12 4 314
337 340 340 340 340 333 343 357 358 359 348 338 324 315 306 320 325 324 318 304 292 266 270 242 252 278 209 232 176 121 99 77 69 67 8 56 337 357 304 335 353 5 22 14 1 12 16 15 19 22 18 15 10 348
339 341 339 339 337 324 327 347 350 349 338 329 323 313 302 316 320 315 334 317 274 254 232 244 232 269 235 205 137 133 101 150 118 138 56 60 282 316 352 359 6 13 21 25 14 5 8 12 14 17 24 23 24 11
341 338 337 338 334 324 318 328 340 335 332 327 311 289 302 314 312 324 296 250 275 269 225 241 217 263 218 187 179 95 109 245 107 97 122 75 297 291 354 358 11 16 18 35 32 34 28 25 21 20 29 32 33 35
340 337 335 337 332 332 328 326 326 324 302 293 293 292 295 301 320 332 254 283 205 254 231 210 289 225 215 220 166 177 176 183 87 133 83 354 251 4 358 358 11 19 19 16 29 39 38 37 35 35 35 41 43 41
339 335 332 331 317 332 338 334 324 317 301 296 266 277 296 303 14 104 326 305 319 287 278 287 273 183 189 201 173 157 87 82 133 50 221 233 301 348 354 3 11 22 26 9 16 30 44 46 45 40 37 42 48 50
338 332 324 316 284 321 336 333 324 308 302 270 226 300 175 271 244 206 202 223 286 273 297 310 223 202 173 163 176 78 37 126 81 44 256 263 341 342 349 358 4 14 24 18 9 4 19 32 40 49 51 39 40 48
341 335 328 307 261 302 320 319 307 306 277 253 214 252 222 247 261 272 282 286 314 316 326 172 121 204 39 70 35 81 37 359 173 219 236 310 321 328 335 345 355 1 22 12 15 13 4 3 18 34 41 42 40 41
345 346 346 321 288 297 302 307 274 284 248 235 235 257 244 264 276 269 277 295 329 333 349 53 69 59 39 44 47 32 68 237 258 235 314 317 326 327 333 341 353 17 17 13 2 5 13 15 10 7 10 23 22 26
340 332 317 304 300 294 293 274 258 244 254 245 256 253 254 265 265 271 268 304 324 337 78 70 55 7 13 55 354 169 194 224 304 319 325 346 349 341 325 331 353 34 42 33 16 12 21 28 23 25 21 21 33 33
331 329 312 315 312 299 294 218 236 251 251 250 253 273 258 262 339 322 304 294 317 328 87 106 106 45 235 233 267 241 238 299 268 349 359 336 348 347 338 343 325 104 60 42 22 12 14 18 24 27 28 36 38 39
334 337 321 315 312 318 265 221 218 255 249 270 275 281 288 115 44 2 334 14 23 43 50 35 65 263 242 223 231 239 238 268 263 336 341 349 354 347 343 332 243 213 93 21 28 25 23 27 27 25 21 23 23 35
331 322 303 301 314 284 260 238 227 257 270 305 296 309 242 292 337 334 257 195 347 66 323 52 220 246 285 325 295 283 240 243 343 355 347 350 341 339 337 309 10 116 71 21 12 13 20 22 11 31 33 16 22 32
336 332 318 310 306 229 262 267 248 259 292 308 358 337 303 346 32 20 40 115 120 149 244 320 323 303 2 343 281 254 289 299 325 342 341 338 334 338 29 73 53 356 292 323 333 8 21 8 79 63 37 23 23 42
326 323 326 317 274 263 262 243 260 296 280 321 353 341 27 26 17 15 8 24 81 36 320 348 51 72 7 359 325 231 314 312 317 328 339 346 338 79 59 46 3 343 332 336 348 347 13 19 151 54 41 56 77 78
321 312 302 275 270 254 264 289 272 315 27 334 343 44 36 23 349 346 56 38 341 27 9 103 13 4 2 2 312 248 286 297 318 304 314 319 254 182 51 27 9 13 23 15 2 327 22 137 163 60 68 81 77 89
312 271 262 272 261 273 309 7 337 329 354 358 7 58 27 346 334 25 47 355 336 329 123 74 342 335 337 293 273 261 270 278 308 283 278 238 217 96 53 10 360 63 29 358 360 353 354 28 152 70 51 53 76 70
305 223 256 274 254 301 354 10 353 33 44 19 40 17 284 341 338 28 332 308 347 113 284 333 328 292 293 310 284 269 258 261 274 279 280 277 161 59 335 320 13 3 1 331 321 359 354 296 113 135 94 80 80 78
154 217 196 227 245 177 311 319 19 50 83 210 290 9 344 340 348 324 274 348 340 317 310 307 308 323 323 295 291 281 282 282 283 272 238 131 338 324 35 24 359 40 15 359 1 353 353 11 71 88 88 85 88 73
269 262 226 234 241 223 75 106 148 116 175 215 187 79 9 323 295 279 349 4 317 262 281 298 304 292 300 293 286 294 303 278 209 150 133 267 116 48 28 40 26 25 18 8 9 28 39 48 117 131 91 111 73 66
240 250 198 193 200 204 179 192 203 193 193 182 147 182 213 221 256 346 345 312 290 284 295 300 313 317 299 315 46 75 102 121 285 290 279 159 112 55 22 20 15 12 32 57 55 37 64 101 106 263 124 87 51 82
229 221 206 201 207 220 216 202 228 199 173 172 174 200 228 198 327 308 315 314 285 293 310 350 37 66 45 68 76 55 354 318 294 245 225 162 127 85 26 7 13 19 61 74 49 71 62 46 41 86 94 64 36 29
242 196 207 191 190 225 218 196 207 188 183 172 161 144 137 183 97 22 351 352 300 319 34 87 100 80 58 18 4 349 356 31 80 99 145 135 115 46 7 25 50 54 76 79 43 83 98 107 90 88 77 54 47 52
253 195 219 203 233 214 198 193 177 173 163 178 182 189 169 146 120 121 135 156 129 37 9 153 135 93 44 16 3 360 34 74 88 97 86 80 71 39 39 66 62 44 48 66 88 100 107 88 66 75 68 45 27 14
213 223 208 199 193 157 157 171 170 185 185 186 183 185 188 189 208 206 185 180 159 106 138 148 130 90 46 19 19 44 69 90 94 90 103 56 25 55 76 67 76 53 60 72 76 81 85 83 59 30 16 4 355 359
232 212 186 152 145 186 188 170 172 171 194 212 222 227 220 210 235 211 199 193 213 78 120 142 133 100 65 54 64 71 85 93 91 91 95 93 85 89 92 75 68 56 53 54 46 30 21 15 12 15 25 26 16 5
Wind_Speed_850mb
39 48 52 53 52 46 43 48 52 56 49 34 23 13 6 6 11 9 9 3 6 6 20 16 23 16 11 6 4 13 13 9 8 9 5 5 5 7 5 8 10 7 8 8 8 10 11 40 20 15 16 30 23 31
41 49 52 53 51 42 42 48 52 52 35 30 24 14 7 9 13 10 10 8 6 13 11 21 23 14 24 14 12 5 8 7 8 5 4 7 6 7 19 8 11 5 5 2 6 3 16 28 32 25 18 22 27 36
44 51 53 53 48 39 42 47 50 43 29 27 23 13 13 14 15 8 6 7 6 6 15 13 19 27 21 15 5 3 4 7 9 13 7 4 6 7 8 7 8 6 13 4 5 5 23 35 11 47 34 26 32 34
45 50 53 52 44 37 42 46 44 31 25 22 25 16 19 15 9 5 2 8 4 5 4 6 20 23 22 15 8 6 15 17 18 11 6 5 5 15 7 8 6 8 20 14 7 12 41 14 48 47 50 39 28 30
45 50 51 49 40 37 42 44 37 20 18 17 19 19 14 11 10 7 7 4 3 2 4 12 11 18 21 16 9 5 6 3 8 8 7 7 9 9 9 7 6 25 7 7 5 31 26 33 51 52 42 43 36 36
44 48 47 43 36 35 41 40 28 18 13 17 11 10 8 6 6 7 5 4 10 8 5 4 4 6 7 10 9 6 8 12 10 7 6 6 8 16 6 6 25 30 60 42 13 44 25 38 37 35 35 47 41 39
44 47 43 37 32 31 38 35 21 17 12 14 14 11 11 10 10 6 5 14 9 8 5 8 8 6 8 8 6 1 6 9 8 6 9 7 7 10 4 7 39 50 41 60 49 38 30 43 40 43 35 32 36 42
44 43 38 34 29 27 32 31 22 14 14 11 10 10 13 17 15 7 12 14 9 6 5 2 8 5 9 7 4 4 5 4 8 5 8 8 11 7 4 36 46 40 29 55 55 38 38 39 49 51 38 35 30 33
41 38 35 33 28 24 26 27 21 18 16 15 14 17 16 7 9 15 20 15 12 7 4 4 4 5 5 6 4 4 4 4 4 4 1 3 6 5 13 36 41 39 32 47 53 41 40 47 48 57 55 40 32 24
39 36 34 33 29 22 22 23 22 19 18 16 14 7 6 9 23 21 4 4 4 5 7 8 7 6 5 3 3 6 2 5 4 0 3 5 5 17 32 42 36 32 28 50 53 55 54 54 59 59 57 50 43 35
35 35 34 32 29 21 19 21 24 21 18 10 7 5 16 22 9 4 4 2 2 6 10 11 16 6 7 1 2 2 3 1 2 3 3 2 5 10 36 39 34 22 16 29 45 40 44 47 47 52 57 61 57 44
33 33 33 31 22 18 21 23 23 20 15 13 14 18 9 5 3 2 5 3 5 7 7 7 6 8 3 6 4 9 3 4 2 3 6 5 7 24 31 36 35 20 12 18 27 38 48 55 55 49 53 60 62 54
34 33 31 27 16 21 25 24 20 18 20 16 4 4 4 1 8 4 7 9 6 9 9 7 7 7 7 9 2 2 2 4 11 5 2 7 15 23 29 29 33 22 19 16 13 21 31 48 56 60 47 47 57 65
35 35 30 22 14 19 26 21 16 12 10 5 5 8 6 5 8 7 10 9 18 17 36 32 6 9 6 4 3 5 1 6 5 5 5 6 16 24 28 29 30 22 21 22 16 16 22 29 39 49 54 57 45 52
35 35 26 14 15 21 28 21 10 11 7 6 6 6 10 12 13 16 18 20 26 27 24 3 2 4 4 5 5 5 6 5 5 7 6 17 18 23 31 32 32 18 18 21 20 21 22 25 25 31 36 37 46 53
38 26 15 14 24 32 25 18 13 13 7 8 10 5 11 5 16 12 13 22 21 28 4 3 5 6 7 2 6 4 3 5 6 6 20 20 23 24 30 30 27 10 16 19 24 23 23 27 28 28 28 33 37 39
40 25 33 29 22 20 17 13 8 8 7 6 11 20 26 23 19 21 14 16 23 12 2 5 6 2 0 4 3 4 7 5 13 18 19 15 19 23 23 24 15 6 13 16 24 27 17 25 28 28 34 29 33 35
47 34 25 19 18 16 15 12 7 7 10 18 12 30 26 18 15 20 19 10 12 5 2 4 8 8 1 3 4 6 8 8 7 8 14 15 20 29 21 20 5 8 11 16 21 21 16 16 23 27 30 30 32 26
33 18 18 14 12 10 5 7 11 9 16 18 20 26 7 7 20 22 14 11 17 15 9 6 8 5 5 10 7 7 11 7 6 10 19 18 18 25 24 11 2 2 4 13 15 19 23 18 15 18 23 23 25 21
27 22 14 17 19 6 6 6 10 10 10 11 12 11 5 6 8 3 3 12 2 12 7 1 9 5 5 9 5 9 7 4 4 19 27 14 17 27 27 8 2 1 3 15 12 15 22 21 10 12 18 24 28 13
21 20 22 15 9 9 8 6 9 9 11 7 9 6 9 11 10 17 10 4 6 16 7 13 23 6 4 5 12 7 6 7 12 19 14 11 19 15 7 8 10 10 13 13 11 13 17 21 8 15 19 26 27 16
25 20 15 7 4 5 9 10 9 12 7 7 5 7 8 8 8 10 7 5 4 2 5 13 10 12 12 15 5 7 11 9 17 17 6 14 10 4 7 7 9 14 12 9 12 11 20 10 9 13 17 21 25 24
15 11 6 5 5 6 5 6 6 6 7 11 7 5 7 6 10 10 7 5 3 6 6 4 6 12 18 11 5 13 12 14 17 14 13 10 6 2 6 10 12 9 8 11 13 7 9 13 1 5 14 18 19 20
13 4 4 4 5 8 8 3 5 7 6 9 7 5 7 9 12 6 2 5 5 6 1 4 14 17 13 9 13 13 15 13 13 13 12 11 9 9 22 29 14 17 23 17 11 10 11 4 12 4 12 12 14 11
5 5 4 6 5 5 5 6 7 7 6 8 6 3 7 8 3 5 1 4 11 5 1 7 6 9 11 12 14 14 18 19 17 16 15 11 7 5 25 20 10 29 14 14 8 13 15 5 7 11 11 15 16 18
1 6 8 5 2 2 1 2 4 4 2 1 3 5 6 6 6 5 4 8 7 2 8 9 11 16 18 16 14 16 19 20 16 18 5 8 7 28 14 12 14 12 9 4 9 13 12 13 12 7 5 14 15 14
3 7 7 7 4 2 1 1 1 5 3 5 2 1 4 5 4 5 8 6 5 8 11 14 18 20 17 12 16 20 20 8 2 5 7 3 2 12 19 18 21 18 17 10 9 11 9 8 7 5 2 6 10 11
10 6 8 6 7 6 6 5 6 8 8 7 7 4 4 4 5 7 9 9 11 14 17 18 12 7 7 6 4 6 8 5 1 7 8 10 8 7 11 19 16 14 10 15 12 9 5 4 4 5 11 8 8 9
9 9 11 7 6 6 10 13 9 9 12 13 12 5 4 2 6 7 9 13 13 14 13 4 5 5 6 6 5 4 4 10 10 12 11 13 9 6 9 13 15 15 5 8 10 5 9 6 5 18 15 6 6 5
8 17 8 8 7 8 7 13 10 14 15 13 11 9 7 3 1 4 7 4 3 2 3 7 10 6 8 7 11 19 20 14 15 12 14 12 8 6 12 10 12 15 12 10 11 8 11 11 13 9 4 5 7 7
6 14 9 13 9 6 15 19 20 16 19 14 13 15 12 6 7 6 6 8 7 6 2 9 10 8 9 16 23 22 13 15 18 12 8 6 5 8 10 8 8 13 14 10 12 14 10 8 8 9 9 9 10 12
13 15 9 9 5 15 24 17 15 12 14 15 13 16 17 12 9 12 21 17 7 6 8 7 7 10 14 20 18 13 13 14 11 7 3 2 5 6 7 9 9 9 10 13 15 13 11 10 8 10 11 13 14 13
9 10 11 11 14 16 17 15 11 7 10 10 13 17 20 14 10 18 28 25 9 4 10 13 11 10 12 16 18 19 19 20 18 15 14 14 14 14 12 10 8 6 6 6 7 7 7 7 9 13 15 16 15 17
Wind_Direction_850mb
344 347 346 348 350 349 348 351 350 349 350 359 10 26 63 104 121 132 127 159 224 296 301 306 315 302 288 247 289 314 339 8 329 352 325 316 302 323 309 44 125 127 182 187 213 231 240 15 337 357 323 321 334 338
342 345 345 347 349 348 349 350 351 351 357 4 10 26 63 114 134 147 182 188 209 256 287 332 350 347 360 330 245 329 313 307 333 336 339 302 322 339 341 35 29 55 302 304 244 328 336 317 320 275 326 325 320 314
339 344 344 348 348 348 350 350 351 355 3 13 30 47 81 103 140 155 190 215 256 296 300 0 5 12 17 11 234 245 307 308 333 337 296 325 337 333 353 32 316 317 345 274 287 51 319 333 293 330 331 326 313 303
338 342 343 348 348 349 349 350 353 359 12 33 42 65 87 94 96 84 54 195 233 315 322 349 359 12 18 39 28 333 277 316 312 326 10 16 338 1 335 306 334 335 308 324 300 342 348 100 292 315 329 335 315 299
339 341 343 346 348 350 350 351 355 5 23 39 51 62 79 68 54 50 47 68 357 298 304 311 342 13 25 31 42 25 333 7 42 23 25 16 9 331 312 294 354 352 321 5 314 303 289 285 319 338 340 326 328 312
338 339 342 344 348 350 351 354 2 11 30 38 42 33 52 54 345 309 329 287 336 304 295 303 294 303 339 21 26 58 66 51 62 61 14 353 339 346 353 336 350 354 5 350 338 340 344 352 353 345 331 319 313 310
338 338 339 344 347 349 355 0 10 20 28 35 35 12 354 351 351 9 338 322 325 310 282 301 284 232 262 295 235 120 54 62 58 56 13 335 346 14 312 348 349 350 5 3 4 0 354 357 346 353 340 322 303 294
337 338 339 342 345 344 354 4 7 7 3 7 357 336 327 332 325 326 324 324 311 304 289 312 276 282 198 239 220 188 148 86 51 74 358 351 330 351 352 335 351 359 7 5 0 17 5 0 12 11 13 12 4 314
337 340 340 340 340 333 343 357 358 359 348 338 324 315 306 320 325 324 318 304 292 266 270 242 252 278 209 232 176 121 99 77 69 67 8 56 337 357 304 335 353 5 22 14 1 12 16 15 19 22 18 15 10 348
339 341 339 339 337 324 327 347 350 349 338 329 323 313 302 316 320 315 334 317 274 254 232 244 232 269 235 205 137 133 101 150 118 138 56 60 282 316 352 359 6 13 21 25 14 5 8 12 14 17 24 23 24 11
341 338 337 338 334 324 318 328 340 335 332 327 311 289 302 314 312 324 296 250 275 269 225 241 217 263 218 187 179 95 109 245 107 97 122 75 297 291 354 358 11 16 18 35 32 34 28 25 21 20 29 32 33 35
340 337 335 337 332 332 328 326 326 324 302 293 293 292 295 301 320 332 254 283 205 254 231 210 289 225 215 220 166 177 176 183 87 133 83 354 251 4 358 358 11 19 19 16 29 39 38 37 35 35 35 41 43 41
339 335 332 331 317 332 338 334 324 317 301 296 266 277 296 303 14 104 326 305 319 287 278 287 273 183 189 201 173 157 87 82 133 50 221 233 301 348 354 3 11 22 26 9 16 30 44 46 45 40 37 42 48 50
338 332 324 316 284 321 336 333 324 308 302 270 226 300 175 271 244 206 202 223 286 273 297 310 223 202 173 163 176 78 37 126 81 44 256 263 341 342 349 358 4 14 24 18 9 4 19 32 40 49 51 39 40 48
341 335 328 307 261 302 320 319 307 306 277 253 214 252 222 247 261 272 282 286 314 316 326 172 121 204 39 70 35 81 37 359 173 219 236 310 321 328 335 345 355 1 22 12 15 13 4 3 18 34 41 42 40 41
345 346 346 321 288 297 302 307 274 284 248 235 235 257 244 264 276 269 277 295 329 333 349 53 69 59 39 44 47 32 68 237 258 235 314 317 326 327 333 341 353 17 17 13 2 5 13 15 10 7 10 23 22 26
340 332 317 304 300 294 293 274 258 244 254 245 256 253 254 265 265 271 268 304 324 337 78 70 55 7 13 55 354 169 194 224 304 319 325 346 349 341 325 331 353 34 42 33 16 12 21 28 23 25 21 21 33 33
331 329 312 315 312 299 294 218 236 251 251 250 253 273 258 262 339 322 304 294 317 328 87 106 106 45 235 233 267 241 238 299 268 349 359 336 348 347 338 343 325 104 60 42 22 12 14 18 24 27 28 36 38 39
334 337 321 315 312 318 265 221 218 255 249 270 275 281 288 115 44 2 334 14 23 43 50 35 65 263 242 223 231 239 238 268 263 336 341 349 354 347 343 332 243 213 93 21 28 25 23 27 27 25 21 23 23 35
331 322 303 301 314 284 260 238 227 257 270 305 296 309 242 292 337 334 257 195 347 66 323 52 220 246 285 325 295 283 240 243 343 355 347 350 341 339 337 309 10 116 71 21 12 13 20 22 11 31 33 16 22 32
336 332 318 310 306 229 262 267 248 259 292 308 358 337 303 346 32 20 40 115 120 149 244 320 323 303 2 343 281 254 289 299 325 342 341 338 334 338 29 73 53 356 292 323 333 8 21 8 79 63 37 23 23 42
326 323 326 317 274 263 262 243 260 296 280 321 353 341 27 26 17 15 8 24 81 36 320 348 51 72 7 359 325 231 314 312 317 328 339 346 338 79 59 46 3 343 332 336 348 347 13 19 151 54 41 56 77 78
321 312 302 275 270 254 264 289 272 315 27 334 343 44 36 23 349 346 56 38 341 27 9 103 13 4 2 2 312 248 286 297 318 304 314 319 254 182 51 27 9 13 23 15 2 327 22 137 163 60 68 81 77 89
312 271 262 272 261 273 309 7 337 329 354 358 7 58 27 346 334 25 47 355 336 329 123 74 342 335 337 293 273 261 270 278 308 283 278 238 217 96 53 10 360 63 29 358 360 353 354 28 152 70 51 53 76 70
305 223 256 274 254 301 354 10 353 33 44 19 40 17 284 341 338 28 332 308 347 113 284 333 328 292 293 310 284 269 258 261 274 279 280 277 161 59 335 320 13 3 1 331 321 359 354 296 113 135 94 80 80 78
154 217 196 227 245 177 311 319 19 50 83 210 290 9 344 340 348 324 274 348 340 317 310 307 308 323 323 295 291 281 282 282 283 272 238 131 338 324 35 24 359 40 15 359 1 353 353 11 71 88 88 85 88 73
269 262 226 234 241 223 75 106 148 116 175 215 187 79 9 323 295 279 349 4 317 262 281 298 304 292 300 293 286 294 303 278 209 150 133 267 116 48 28 40 26 25 18 8 9 28 39 48 117 131 91 111 73 66
240 250 198 193 200 204 179 192 203 193 193 182 147 182 213 221 256 346 345 312 290 284 295 300 313 317 299 315 46 75 102 121 285 290 279 159 112 55 22 20 15 12 32 57 55 37 64 101 106 263 124 87 51 82
229 221 206 201 207 220 216 202 228 199 173 172 174 200 228 198 327 308 315 314 285 293 310 350 37 66 45 68 76 55 354 318 294 245 225 162 127 85 26 7 13 19 61 74 49 71 62 46 41 86 94 64 36 29
242 196 207 191 190 225 218 196 207 188 183 172 161 144 137 183 97 22 351 352 300 319 34 87 100 80 58 18 4 349 356 31 80 99 145 135 115 46 7 25 50 54 76 79 43 83 98 107 90 88 77 54 47 52
253 195 219 203 233 214 198 193 177 173 163 178 182 189 169 146 120 121 135 156 129 37 9 153 135 93 44 16 3 360 34 74 88 97 86 80 71 39 39 66 62 44 48 66 88 100 107 88 66 75 68 45 27 14
213 223 208 199 193 157 157 171 170 185 185 186 183 185 188 189 208 206 185 180 159 106 138 148 130 90 46 19 19 44 69 90 94 90 103 56 25 55 76 67 76 53 60 72 76 81 85 83 59 30 16 4 355 359
232 212 186 152 145 186 188 170 172 171 194 212 222 227 220 210 235 211 199 193 213 78 120 142 133 100 65 54 64 71 85 93 91 91 95 93 85 89 92 75 68 56 53 54 46 30 21 15 12 15 25 26 16 5